Regional Weather Roundup
Issued by NWS

Home | Current Version | Previous Version | Graphics & Text | Print | Product List | Glossary On
Versions: 1 2 3 4 5 6 7 8 9 10 11 12 13 14 15 16 17 18 19 20 21 22 23 24 25 26 27 28 29 30 31 32 33 34 35 36 37 38 39 40 41 42 43 44 45 46 47 48 49 50
000
ASUS45 KABQ 031401
RWRNM
NEW MEXICO REGIONAL WEATHER ROUNDUP
NATIONAL WEATHER SERVICE ALBUQUERQUE NM
700 AM MST SAT DEC 03 2016

NOTE: "FAIR" MEANS FEW OR NO CLOUDS BELOW 12,000 FEET AGL WITH NO
       SIGNIFICANT WEATHER OR OBSTRUCTIONS TO VISION.

      THIS PRODUCT IS RELEASED AS TWO VERSIONS.  ONE VERSION NEAR
      THE TOP OF THE HOUR CONTAINING PRELIMINARY DATA FROM ALBUQUERQUE
      AND OTHER STATIONS.  A FINAL VERSION WITH ADDITIONAL DATA IS
      ISSUED ABOUT 10 MINUTES AFTER THE HOUR.

NMZ501-503-504-510>518-031500-
NORTHWEST PLATEAU/NORTHCENTRAL MOUNTAINS

CITY           SKY/WX    TMP DP  RH WIND       PRES   REMARKS
FARMINGTON     CLOUDY    26  24  92 CALM      30.14R
LOS ALAMOS     FAIR      26  26  99 CALM      30.08R
SANTA FE       FAIR      25  21  85 N10       30.07R WCI  15
TAOS           FAIR      18   9  68 N8        30.09S WCI   7
ANGEL FIRE     CLOUDY    17  15  94 CALM      30.09R

$$
NMZ402-403-502-505>509-031500-
WESTCENTRAL MOUNTAINS/SOUTHWEST MOUNTAINS

CITY           SKY/WX    TMP DP  RH WIND       PRES   REMARKS
GALLUP         CLOUDY    29  24  82 NE7       30.11R WCI  22
GRANTS         MOCLDY    22  20  93 NW6       30.11R WCI  14
SILVER CITY    CLOUDY    36  35  94 NW8       29.96R WCI  30

$$
NMZ407-409-411-412-031500-
SOUTHERN DESERTS

CITY           SKY/WX    TMP DP  RH WIND       PRES   REMARKS
DEMING         LGT RAIN  37  34  89 NE24G33   29.97R WCI  26
LAS CRUCES     LGT RAIN  37  31  79 N17G25    29.96R WCI  27
HOLLOMAN AFB   CLOUDY    40  32  74 N9        30.02R WCI  34
T OR C         CLOUDY    38  26  62 NE18G25   30.02R WCI  28

$$
NMZ519>523-031500-
CENTRAL VALLEYS/CENTRAL HIGHLANDS

CITY           SKY/WX    TMP DP  RH WIND       PRES   REMARKS
ALBUQUERQUE    FLURRIES  32  30  92 NW7       30.09S WCI  26
DOUBLE EAGLE   MOCLDY    27  25  93 NW3       30.09S
MORIARTY ARPT  MOCLDY    26  23  87 NW3       30.10S
CLINES CORNERS CLOUDY    23  20  88 E8        30.07S WCI  14
BELEN          CLOUDY    32  32 100 NW3       30.09S
SOCORRO        CLOUDY    34  31  89 N10       30.09R WCI  26

$$
NMZ524>526-539-540-031500-
SOUTHCENTRAL MOUNTAINS

CITY           SKY/WX    TMP DP  RH WIND       PRES   REMARKS
RUIDOSO        CLOUDY    25  23  93 NW5       30.07R WCI  19

$$
NMZ527>531-031500-
NORTHEAST HIGHLANDS/NORTHEAST PLAINS

CITY           SKY/WX    TMP DP  RH WIND       PRES   REMARKS
LAS VEGAS      FAIR      19  17  92 CALM      30.08R
RATON          FAIR      13  10  88 NW3       30.06R
CLAYTON        CLOUDY    30  28  92 CALM      30.09S

$$
NMZ532>537-031500-
EASTCENTRAL PLAINS

CITY           SKY/WX    TMP DP  RH WIND       PRES   REMARKS
TUCUMCARI      CLOUDY    33  31  92 NE6       30.12R WCI  28
CANNON AFB     NOT AVBL
CLOVIS AIRPORT CLOUDY    32  28  86 N12       30.09R WCI  23

$$
NMZ028-029-538-031500-
SOUTHEAST PLAINS

CITY           SKY/WX    TMP DP  RH WIND       PRES   REMARKS
ROSWELL        CLOUDY    35  32  88 N12       30.11R WCI  27
ARTESIA        DRIZZLE   36  36 100 N15       30.11R WCI  26
CARLSBAD       LGT RAIN  36  36 100 NW17      30.08R FOG     WCI  26
HOBBS          CLOUDY    39  39 100 N13       30.05S WCI  32


$$




USA.gov is the U.S. government's official web portal to all federal, state and local government web resources and services.